Weather History for Greenville, MS

Change the Weather History Date:

Saturday, May 3, 2014

  Actual Average Record
Temperature  
Mean Temperature 66 °F 69 °F  
Max Temperature 82 °F 79 °F 92 °F (1943)
Min Temperature 50 °F 58 °F 39 °F (2013)
Degree Days  
Heating Degree Days 0 1  
Month to date heating degree days 12 3  
Since 1 July heating degree days 3187 2764  
Cooling Degree Days 1 5  
Month to date cooling degree days 1 14  
Year to date cooling degree days 75 100  
Growing Degree Days 15 (Base 50)    
Moisture  
Dew Point 46 °F    
Average Humidity 53    
Maximum Humidity 80    
Minimum Humidity 25    
Precipitation  
Precipitation 0.00 in 0.18 in 2.95 in (2000)
Month to date precipitation 0.00 0.53  
Year to date precipitation 18.88 19.88  
Sea Level Pressure  
Sea Level Pressure 30.03 in    
Wind  
Wind Speed 6 mph (SW)    
Max Wind Speed 13 mph    
Max Gust Speed 17 mph    
Visibility 10 miles    
Events      
T = Trace of Precipitation, MM = Missing Value Source: NWS Daily Summary

Daily Weather History Graph

Daily Weather History Graph

Search for Another Location

Airport:

Trip Planner

Search our weather history database for the weather conditions in past years. The results will help you decide how hot, cold, wet, or windy it might be!

Date:

Astronomy

May. 03, 2014 Rise Set
Actual Time 6:13 AM CDT 7:48 PM CDT
Civil Twilight 5:47 AM CDT 8:15 PM CDT
Nautical Twilight 5:15 AM CDT 8:47 PM CDT
Astronomical Twilight 4:41 AM CDT 9:20 PM CDT
Moon 9:46 AM CDT (5/3) 11:53 PM CDT (5/3)
Length of Visible Light 14h 28m
Length of Day
13h 34m
Waxing Crescent, 20% of the Moon is Illuminated
May 3
Waxing Crescent
May 6
First Quarter
May 14
Full
May 21
Last Quarter
May 28
New

Hourly Weather History & Observations

Time (CDT) Temp. Dew Point Humidity Pressure Visibility Wind Dir Wind Speed Gust Speed Precip Events Conditions
12:53 AM 54.0 °F 46.9 °F 77% 29.99 in 10.0 mi South 6.9 mph - N/A   Clear
1:53 AM 53.1 °F 46.0 °F 77% 29.99 in 10.0 mi South 6.9 mph - N/A   Clear
2:53 AM 53.1 °F 46.0 °F 77% 29.99 in 10.0 mi SSW 4.6 mph - N/A   Clear
3:53 AM 55.9 °F 46.0 °F 69% 30.00 in 10.0 mi West 4.6 mph - N/A   Clear
4:53 AM 55.9 °F 45.0 °F 67% 30.00 in 10.0 mi SW 3.5 mph - N/A   Clear
5:53 AM 54.0 °F 45.0 °F 72% 30.01 in 10.0 mi SSW 3.5 mph - N/A   Clear
6:53 AM 50.0 °F 45.0 °F 83% 30.02 in 10.0 mi South 5.8 mph - N/A   Clear
7:53 AM 60.1 °F 50.0 °F 69% 30.04 in 10.0 mi WSW 4.6 mph - N/A   Clear
8:53 AM 64.9 °F 51.1 °F 61% 30.05 in 10.0 mi West 5.8 mph - N/A   Clear
9:53 AM 70.0 °F 50.0 °F 49% 30.05 in 10.0 mi West 4.6 mph - N/A   Clear
10:53 AM 73.9 °F 46.9 °F 38% 30.05 in 10.0 mi West 8.1 mph - N/A   Clear
11:53 AM 75.9 °F 39.9 °F 27% 30.05 in 10.0 mi West 11.5 mph - N/A   Clear
12:53 PM 78.1 °F 43.0 °F 29% 30.05 in 10.0 mi SW 10.4 mph - N/A   Clear
1:53 PM 80.1 °F 41.0 °F 25% 30.04 in 10.0 mi Variable 4.6 mph - N/A   Clear
2:53 PM 80.1 °F 42.1 °F 26% 30.03 in 10.0 mi Variable 5.8 mph - N/A   Clear
3:53 PM 80.1 °F 45.0 °F 29% 30.01 in 10.0 mi Calm Calm - N/A   Clear
4:53 PM 80.1 °F 44.1 °F 28% 30.01 in 10.0 mi SW 4.6 mph - N/A   Clear
5:53 PM 79.0 °F 48.0 °F 34% 30.01 in 10.0 mi SW 8.1 mph - N/A   Clear
6:53 PM 75.0 °F 48.0 °F 38% 30.02 in 10.0 mi SW 5.8 mph - N/A   Clear
7:53 PM 73.9 °F 45.0 °F 35% 30.03 in 10.0 mi SSW 3.5 mph - N/A   Clear
8:53 PM 71.1 °F 45.0 °F 39% 30.04 in 10.0 mi South 6.9 mph - N/A   Clear
9:53 PM 66.9 °F 46.0 °F 47% 30.06 in 10.0 mi South 3.5 mph - N/A   Clear
10:53 PM 64.9 °F 48.0 °F 54% 30.06 in 10.0 mi South 5.8 mph - N/A   Clear
11:53 PM 63.0 °F 48.0 °F 58% 30.07 in 10.0 mi South 4.6 mph - N/A   Clear